Theta_e
337 339 340 341 345 346 347 345 348 347 351 348 347 342 344 346 351 355 356 357 359 359 355 352 355 352 351 349 349 347 347 346 350 345 342 345 345 348 347 346 348 345 346
337 338 338 340 344 346 346 347 349 349 350 347 347 348 346 349 350 356 358 357 359 359 355 354 353 353 352 350 352 350 345 346 348 340 335 329 338 342 347 344 342 345 344
335 337 337 338 342 346 348 349 351 352 350 351 349 351 352 354 351 351 353 357 359 356 355 354 355 354 352 350 349 349 348 343 347 346 335 331 327 334 340 344 346 343 342
337 338 337 338 342 347 351 351 352 353 351 353 350 350 347 344 348 350 353 357 358 357 357 356 356 355 354 351 351 354 350 349 344 346 345 342 341 333 331 342 344 346 345
337 337 338 340 342 349 350 352 353 354 351 351 353 350 348 351 352 352 350 354 358 358 358 360 357 356 359 356 354 352 350 351 348 345 344 341 340 340 338 333 337 343 346
338 339 340 341 342 349 352 354 353 355 354 353 353 353 351 352 354 350 353 350 356 359 358 360 359 359 359 356 356 354 351 349 351 351 349 344 339 337 338 334 336 337 343
336 338 338 339 340 346 350 355 354 353 355 355 352 352 356 352 351 351 347 339 344 355 357 359 358 359 359 357 357 355 354 354 352 352 350 350 349 346 342 340 340 338 342
329 334 339 340 341 344 349 355 355 354 355 356 354 353 354 359 356 355 350 348 349 351 353 349 345 357 360 359 358 356 354 355 354 353 353 353 351 350 347 342 340 334 339
333 333 337 340 342 344 345 350 356 357 357 357 357 357 357 355 356 357 357 357 358 355 351 335 331 351 357 359 359 357 354 354 354 353 353 353 352 350 351 350 346 340 333
343 339 333 337 343 346 346 352 357 357 360 359 360 359 359 358 357 358 360 359 356 357 359 353 349 357 358 358 358 356 354 354 354 352 351 351 354 351 352 349 348 347 341
341 344 343 340 336 333 345 355 356 357 358 359 361 361 361 362 362 360 358 361 362 361 358 359 357 357 356 358 358 358 355 354 353 354 351 352 354 352 352 352 351 348 347
342 344 343 333 332 330 341 339 345 356 357 357 356 360 360 361 361 360 359 358 359 360 351 339 342 352 354 355 354 354 356 354 352 355 352 352 355 351 353 352 350 349 349
339 342 345 346 343 350 352 350 346 344 348 357 356 357 358 359 357 360 359 354 356 345 343 345 335 333 346 355 356 356 353 352 355 356 351 354 352 352 353 354 349 351 352
336 339 344 349 353 352 351 348 351 351 355 354 353 353 355 355 357 356 355 354 345 335 334 332 333 336 340 343 345 343 341 341 347 353 357 356 354 352 352 350 352 352 349
336 342 345 346 346 348 349 350 353 356 356 355 352 351 354 353 355 350 348 349 346 337 336 334 336 337 340 343 341 342 339 341 344 347 354 359 358 354 352 356 354 351 350
335 342 344 345 345 346 348 354 352 350 351 349 351 358 355 354 353 351 347 347 353 348 345 338 337 340 347 336 335 339 339 343 344 342 342 345 352 354 346 346 350 354 351
333 333 337 341 344 346 350 347 350 350 355 355 359 360 361 354 355 357 356 351 345 342 341 342 338 334 335 331 332 337 341 340 340 341 342 344 350 349 357 347 345 346 348
336 335 340 343 343 343 346 348 351 351 350 352 357 359 358 356 354 346 345 350 340 336 334 333 336 330 329 328 329 335 336 334 334 338 340 342 343 350 355 354 350 349 351
333 337 342 340 338 338 345 347 346 346 344 347 355 359 358 357 349 346 345 343 343 339 335 331 332 332 329 327 325 327 328 329 331 335 341 344 345 346 343 351 352 351 350
331 331 336 336 333 334 336 340 340 341 342 347 351 353 351 352 356 354 349 350 342 341 339 332 331 334 329 326 323 325 329 327 329 333 339 339 341 339 331 345 338 333 341
328 329 331 330 331 331 332 331 333 337 340 342 342 343 346 351 349 352 351 353 348 344 342 336 337 337 337 337 328 323 331 332 332 334 339 350 329 327 328 337 334 331 335
326 326 325 325 326 328 327 327 329 336 336 337 337 338 339 342 344 345 349 350 350 349 349 347 348 351 352 337 335 323 324 330 332 342 350 346 323 323 324 326 330 325 330
324 326 324 324 327 329 329 327 330 335 335 333 332 334 336 338 339 337 337 338 345 348 346 345 345 345 345 344 330 328 323 325 341 347 338 329 324 324 327 324 328 328 342
324 325 326 326 326 330 331 330 331 333 333 333 334 334 333 333 333 334 335 333 332 335 343 341 341 341 339 342 343 337 333 326 330 332 335 332 331 327 332 336 333 335 342
325 326 326 326 326 329 329 331 333 331 327 328 329 329 329 329 331 332 333 332 333 331 332 337 339 335 338 337 325 334 341 338 333 335 339 337 335 333 334 337 342 340 342
324 326 326 326 326 328 328 328 329 328 326 325 324 324 324 326 327 327 328 321 316 314 312 312 318 330 323 317 312 310 311 315 315 336 337 336 335 335 334 336 338 339 343
Wind_Speed
11 11 10 10 10 10 11 9 10 8 8 4 3 2 2 3 3 5 7 7 6 6 5 4 3 2 2 4 4 3 4 2 5 3 3 4 5 5 4 4 5 6 6
13 12 12 12 13 12 10 8 9 9 6 4 3 3 3 3 4 5 6 6 6 7 6 5 4 5 3 4 5 4 2 3 5 3 1 3 3 2 5 5 6 7 5
17 16 14 14 14 15 14 11 9 10 7 7 3 3 2 1 3 2 3 5 7 7 7 6 5 5 4 4 5 5 6 4 3 5 4 1 4 1 2 5 7 7 5
20 18 17 16 15 16 16 15 12 11 8 9 6 6 4 4 4 5 6 5 7 7 7 6 6 6 4 4 5 4 4 4 4 1 4 3 3 2 3 1 5 5 7
23 22 22 19 17 19 17 16 16 14 11 10 7 6 5 3 3 4 7 8 7 7 7 7 7 6 5 5 5 5 5 4 3 3 2 3 3 4 4 4 4 2 5
22 23 21 19 18 19 18 17 17 16 14 13 10 8 8 7 4 4 4 3 5 6 6 7 6 6 6 6 5 5 6 6 5 4 5 4 4 4 4 4 4 5 4
12 16 21 20 20 23 21 18 18 16 16 15 12 10 7 8 7 6 5 4 2 4 9 8 8 6 6 6 6 6 5 6 4 6 5 4 5 4 3 3 5 5 4
28 20 9 19 20 21 24 22 21 17 16 15 15 11 8 4 6 6 5 5 6 6 5 5 3 6 8 7 6 4 5 5 5 7 6 4 5 4 3 4 4 2 3
8 28 28 19 19 17 19 19 20 18 17 16 12 12 9 10 6 7 6 5 6 6 7 8 7 10 7 8 7 6 6 6 6 6 6 5 5 4 4 4 3 4 1
15 4 20 15 6 8 14 12 17 17 16 15 12 11 11 10 10 6 6 6 6 6 6 11 12 14 8 8 7 6 5 7 6 4 6 5 4 5 4 3 3 4 4
9 16 18 20 20 27 9 12 15 14 13 13 13 13 11 10 9 9 7 6 6 7 5 7 9 9 8 7 9 8 8 9 7 6 7 7 6 5 4 4 4 4 4
7 11 22 23 30 21 7 25 27 13 13 13 9 13 10 10 9 8 7 7 7 7 6 13 14 8 6 6 6 7 8 7 7 7 6 9 5 7 6 4 5 4 4
6 7 8 12 12 8 6 16 10 8 9 8 8 7 9 10 7 8 7 2 3 5 5 11 8 6 10 8 6 5 4 5 6 6 6 10 7 7 5 6 5 4 4
6 5 8 8 8 8 9 5 4 7 6 7 6 5 6 6 7 6 6 6 5 7 8 7 7 8 5 13 2 5 5 4 3 4 7 8 9 8 7 6 6 5 5
6 8 7 6 6 6 5 4 5 8 6 5 1 5 6 4 6 6 6 7 7 7 4 6 3 3 6 8 9 7 8 8 6 4 2 8 10 13 10 5 6 6 5
8 6 8 7 5 5 2 3 4 4 4 4 3 2 3 5 5 5 6 4 6 5 6 7 4 4 5 8 13 9 7 7 8 7 5 3 8 11 14 15 13 10 8
7 7 3 7 7 7 5 3 2 0 2 2 3 1 1 5 4 5 5 6 6 5 5 5 5 5 6 12 15 17 7 7 7 7 8 2 3 9 9 10 15 14 15
9 7 8 11 8 8 4 5 3 4 2 1 2 2 2 5 5 3 3 3 4 6 6 6 7 8 7 12 14 13 9 5 6 4 5 3 4 8 9 7 6 10 11
8 8 7 8 8 8 8 4 3 3 2 3 3 5 4 6 5 5 6 5 4 5 5 4 7 8 8 14 15 4 3 7 9 7 6 2 8 13 14 6 6 6 6
8 7 7 7 8 6 8 7 6 9 7 6 6 5 5 4 3 6 7 6 5 6 4 6 7 9 8 13 14 8 3 7 7 3 3 8 14 17 4 7 8 10 8
6 6 7 7 5 5 7 6 5 5 1 3 5 6 7 7 6 6 3 5 6 6 7 9 8 11 12 12 17 15 5 5 5 6 8 2 5 9 10 11 13 18 8
6 5 5 4 4 5 4 3 4 4 5 4 3 3 4 4 5 6 5 6 6 6 8 8 8 7 9 15 13 18 18 10 7 9 8 2 3 2 8 6 10 13 3
6 5 5 4 4 5 4 4 6 6 7 7 7 6 5 4 5 5 6 7 6 6 7 8 8 9 7 7 17 15 20 18 11 8 8 3 2 4 4 11 14 7 7
6 5 6 5 4 4 5 4 5 5 5 6 7 7 6 9 7 5 5 6 7 7 7 6 8 8 6 6 6 6 8 12 10 7 5 6 4 4 4 5 5 5 7
4 4 2 1 4 4 5 6 4 3 4 5 6 6 5 7 10 10 9 9 9 9 9 8 7 5 7 7 7 9 7 9 12 6 3 3 3 3 4 4 6 5 5
3 3 5 5 7 6 6 6 6 6 6 6 5 5 5 6 7 9 10 11 16 18 17 17 12 11 11 11 10 6 6 5 11 4 4 4 4 6 5 5 6 6 8
Wind_Direction
162 162 162 163 138 148 147 154 131 162 144 149 160 215 217 160 154 165 173 176 175 176 175 192 209 249 177 190 168 153 172 147 164 216 266 254 236 221 208 204 200 207 204
158 172 167 169 154 157 153 146 140 166 154 155 170 183 189 188 171 174 180 181 176 182 180 197 211 215 221 223 199 170 157 190 167 164 117 301 312 268 200 185 218 218 199
167 175 176 177 162 162 163 162 161 164 168 161 178 230 214 144 93 167 173 204 186 189 184 197 201 218 210 226 203 184 175 183 191 185 160 183 237 282 206 210 211 208 207
174 173 178 179 172 172 169 168 166 168 178 174 184 191 187 172 185 181 190 197 199 187 187 197 201 212 215 218 225 196 186 156 184 175 220 210 180 209 331 314 236 212 205
177 179 181 177 180 171 174 174 173 170 182 194 195 196 196 201 196 182 188 200 197 187 197 195 210 204 210 221 217 212 199 183 160 175 170 232 240 219 218 261 266 240 224
184 184 181 181 178 173 172 173 175 179 181 195 205 201 194 206 211 205 160 145 211 205 197 215 192 201 211 211 222 211 205 202 193 191 214 198 193 216 201 238 258 232 244
144 188 183 185 186 173 176 173 177 183 183 187 202 208 209 208 208 199 178 207 192 206 218 207 205 197 194 208 219 222 206 204 201 204 218 216 235 226 216 143 285 255 258
184 213 197 206 185 179 176 171 176 182 184 186 197 202 199 207 222 201 186 202 218 225 128 112 273 248 193 200 215 214 212 218 221 220 216 229 240 234 228 201 183 273 261
46 161 209 192 191 177 175 174 173 180 182 188 191 200 203 205 213 218 218 203 190 180 174 179 252 246 199 197 204 220 209 213 225 227 227 223 247 243 243 235 172 168 263
18 93 208 190 125 190 171 152 168 180 182 183 189 193 197 204 214 218 227 230 230 226 189 195 205 225 203 197 202 216 208 216 235 225 238 240 231 248 247 246 221 179 184
26 40 96 76 63 302 262 148 158 174 182 187 192 197 197 195 203 214 228 236 239 229 216 191 195 192 196 206 200 215 208 214 229 229 220 242 234 231 228 232 204 198 174
33 79 103 126 170 216 191 124 257 182 189 196 192 193 192 193 197 206 216 219 227 242 24 32 350 311 229 223 219 239 245 233 235 229 231 245 240 245 223 211 220 197 186
68 79 89 136 179 186 93 153 202 184 194 174 176 167 184 186 190 198 206 151 243 97 99 107 289 296 326 281 248 239 258 277 260 242 229 246 233 247 230 223 207 200 178
41 84 64 68 48 44 60 52 81 81 93 124 137 169 171 175 159 164 169 170 163 143 145 170 181 203 46 319 242 186 171 201 224 274 247 247 242 234 222 217 209 198 190
88 100 93 76 68 60 47 18 53 66 65 78 135 204 203 184 163 176 191 212 175 190 166 177 158 222 172 232 243 198 218 200 178 170 260 258 246 243 215 209 214 188 196
54 110 125 124 113 102 26 34 76 94 83 50 8 55 188 173 172 196 209 210 134 160 171 217 247 280 231 231 244 234 214 201 187 167 154 113 312 275 236 228 218 197 193
73 40 345 158 146 161 176 145 155 250 129 184 272 268 181 208 208 133 126 146 163 164 185 178 161 197 232 231 240 240 226 241 232 194 151 69 266 294 257 237 230 218 205
81 49 82 61 43 12 182 168 138 79 53 278 150 92 322 127 130 128 135 144 162 186 172 187 181 199 226 230 243 233 225 244 265 266 52 42 306 279 265 249 223 224 215
79 70 86 93 58 27 18 73 67 109 351 289 166 184 194 169 166 197 198 212 236 195 207 193 198 206 214 235 255 129 196 231 207 189 119 129 288 273 254 239 235 230 243
62 46 91 82 69 39 40 47 28 54 41 17 14 23 33 17 259 208 215 206 200 213 203 228 216 214 217 224 243 287 293 302 304 294 72 307 281 263 290 105 46 337 301
76 46 59 83 77 57 48 23 18 51 30 352 357 346 347 339 309 292 253 210 213 200 207 225 226 224 222 229 219 226 237 240 277 291 294 201 0 58 168 169 160 236 220
133 98 73 65 35 35 58 2 340 330 353 351 342 315 307 306 318 325 314 282 243 222 223 223 239 229 233 230 238 201 214 204 220 242 258 221 64 9 189 209 212 256 221
114 83 77 50 17 28 25 351 309 338 335 332 317 310 303 277 279 281 281 294 282 248 241 235 242 249 244 230 228 219 212 219 218 238 250 263 265 262 238 219 247 242 256
78 61 50 29 351 0 359 322 309 306 306 293 284 282 288 295 286 263 260 254 259 267 267 253 245 247 251 244 244 222 215 219 219 241 228 220 204 216 265 284 225 201 208
61 68 63 308 286 287 281 276 282 316 303 290 282 279 272 270 275 269 267 260 252 235 251 249 250 240 250 252 267 246 220 207 213 166 170 215 197 224 225 245 263 255 238
227 224 230 234 253 254 253 256 247 240 246 253 251 248 256 278 285 291 289 265 252 262 258 251 244 264 242 227 217 201 172 179 166 173 195 198 210 227 210 226 247 240 243